Home > Time Zones > World Clock > Weather > U.S.A. > Adak > Past weeks

Flag for U.S.A. Weather past 2 weeks in Adak, Alaska, U.S.A.

Now
54 °F

Overcast.


Feels Like: 49 °F
Forecast: 51 / 56 °F
Wind: 17 mph from West

Location: Adak

Current Time: Aug 30, 2014 at 1:51:45 PM

Latest Report: Aug 30, 2014 at 1:36 PM


Visibility: 2 mi

Pressure: 29.89 "Hg

Humidity: 77%

Dew point: 46 °F

Location of AdakLocation

Historic Weather in Adak — Graph

°F

Adak temperature yesterday

Maximum temperature yesterday: 57 °F (at 12:56 PM)
Minimum temperature yesterday: 50 °F (at 10:16 PM)
Average temperature yesterday: 54 °F

Past Weeks' High & Low Weather Summary

 TemperatureHumidityPressure
High57 °F (Aug 15, 1:36 PM)94% (Aug 22, 11:16 PM)30.20 "Hg (Aug 22, 11:16 PM)
Low43 °F (Aug 17, 3:36 AM)63% (Aug 30, 12:36 PM)29.55 "Hg (Aug 15, 12:16 PM)
Average52 °F80%29.89 "Hg
* Reported Aug 15 12:16 PM — Aug 30 12:36 PM, Adak, Weather by CustomWeather, © 2014

Note: Actual official high and low records may vary slightly from our data, if they occured in-between our weather recording intervals... More about our weather records

Advertising

Adak weather history for previous 24 hours

 ConditionsComfort  
Time TempWeatherWind HumidityBarometerVisibility
12:36 PM
Aug 30
57 °FMostly cloudy.14 mph63%29.88 "Hg10 mi
12:16 PM55 °FMostly cloudy.10 mph72%29.88 "Hg10 mi
11:56 AM54 °FOvercast.13 mph77%29.87 "Hg10 mi
11:36 AM54 °FOvercast.12 mph72%29.87 "Hg10 mi
11:16 AM52 °FOvercast.12 mph77%29.87 "Hg10 mi
10:56 AM52 °FOvercast.8 mph77%29.86 "Hg10 mi
10:36 AM52 °FOvercast.8 mph77%29.86 "Hg10 mi
10:16 AM52 °FOvercast.9 mph77%29.86 "Hg10 mi
9:56 AM52 °FMostly cloudy.3 mph77%29.86 "Hg10 mi
9:16 AM52 °FOvercast.9 mph77%29.85 "Hg10 mi
8:36 AM52 °FOvercast.10 mph77%29.84 "Hg10 mi
7:56 AM52 °FOvercast.15 mph82%29.82 "Hg10 mi
7:36 AM52 °FOvercast.10 mph77%29.82 "Hg10 mi
7:16 AM50 °FOvercast.13 mph82%29.82 "Hg10 mi
6:56 AM50 °FMostly cloudy.10 mph82%29.82 "Hg10 mi
6:36 AM50 °FMostly cloudy.12 mph82%29.81 "Hg10 mi
6:16 AM50 °FOvercast.8 mph88%29.81 "Hg10 mi
5:56 AM50 °FMostly cloudy.9 mph88%29.81 "Hg5 mi
5:36 AM50 °FMostly cloudy.10 mph82%29.81 "Hg3 mi
4:56 AM50 °FLow clouds.7 mph88%29.80 "Hg4 mi
4:36 AM50 °FLow clouds.9 mph82%29.80 "Hg5 mi
4:16 AM50 °FLow clouds.12 mph88%29.79 "Hg5 mi
3:56 AM50 °FLow clouds.10 mph88%29.79 "Hg10 mi
3:36 AM52 °FLow clouds.15 mph82%29.78 "Hg10 mi
2:56 AM52 °FMostly cloudy.13 mph82%29.77 "Hg10 mi
2:36 AM50 °FPartly cloudy.14 mph88%29.77 "Hg10 mi
2:16 AM50 °FPassing clouds.18 mph88%29.76 "Hg7 mi
1:56 AM50 °FPartly cloudy.16 mph88%29.76 "Hg9 mi
1:36 AM50 °FPassing clouds.16 mph88%29.75 "Hg10 mi
1:16 AM50 °FPassing clouds.10 mph88%29.76 "Hg10 mi
12:56 AM50 °FPassing clouds.12 mph82%29.75 "Hg10 mi
12:36 AM50 °FPassing clouds.14 mph88%29.75 "Hg3 mi
12:16 AM50 °FPassing clouds.15 mph82%29.75 "Hg9 mi
11:56 PM
Aug 29
50 °FPassing clouds.18 mph88%29.74 "Hg4 mi
11:36 PM52 °FLow clouds.16 mph82%29.74 "Hg3 mi
11:16 PM52 °FMostly cloudy.12 mph82%29.74 "Hg2 mi
10:56 PM52 °FPassing clouds.13 mph82%29.73 "Hg8 mi
10:36 PM52 °FPartly sunny.12 mph82%29.73 "Hg4 mi
10:16 PM50 °FMostly cloudy.14 mph88%29.72 "Hg2 mi
9:56 PM52 °FBroken clouds.16 mph82%29.71 "Hg2 mi
9:36 PM52 °FBroken clouds.14 mph82%29.70 "Hg9 mi
8:56 PM52 °FMostly cloudy.17 mph82%29.69 "Hg3 mi
8:36 PM52 °FCloudy.13 mph82%29.68 "Hg5 mi
8:16 PM54 °FMostly cloudy.13 mph82%29.69 "Hg7 mi
7:56 PM52 °FLow clouds.15 mph82%29.69 "Hg8 mi
7:36 PM54 °FMostly cloudy.15 mph82%29.68 "Hg10 mi
7:16 PM54 °FMostly cloudy.14 mph82%29.68 "Hg10 mi
6:56 PM54 °FMostly cloudy.14 mph82%29.67 "Hg10 mi
6:36 PM54 °FMostly cloudy.13 mph82%29.66 "Hg10 mi
6:16 PM54 °FMostly cloudy.9 mph82%29.66 "Hg10 mi
5:56 PM55 °FMostly cloudy.16 mph82%29.66 "Hg10 mi
5:36 PM55 °FMostly cloudy.15 mph82%29.66 "Hg4 mi
5:16 PM55 °FMore clouds than sun.13 mph82%29.66 "Hg2 mi
4:56 PM54 °FCloudy.13 mph88%29.66 "Hg4 mi
4:36 PM54 °FCloudy.10 mph82%29.67 "Hg1 mi
4:16 PM54 °FLow clouds.13 mph82%29.68 "Hg2 mi
3:56 PM54 °FMostly cloudy.9 mph82%29.68 "Hg3 mi
3:36 PM54 °FLow clouds.9 mph82%29.69 "Hg3 mi
3:16 PM55 °FLow clouds.9 mph82%29.69 "Hg9 mi
2:56 PM55 °FLow clouds.14 mph82%29.69 "Hg5 mi
2:36 PM55 °FMostly cloudy.15 mph88%29.69 "Hg4 mi
2:16 PM55 °FOvercast.15 mph88%29.70 "Hg1 mi
1:56 PM55 °FLow clouds.12 mph88%29.71 "Hg5 mi
1:36 PM55 °FOvercast.13 mph82%29.71 "Hg10 mi
1:16 PM55 °FMostly cloudy.14 mph82%29.72 "Hg4 mi
Weather by CustomWeather, © 2014

See weather overviewHow to use our weather pages